Time,TemperatureF,DewpointF,PressureIn,WindDirection,WindDirectionDegrees,WindSpeedMPH,WindSpeedGustMPH,Humidity,HourlyPrecipIn,Conditions,Clouds,dailyrainin,SoftwareType,DateUTC
2013-04-07 00:03:00,8.0,-5.0,29.67,WNW,286,0.0,0.0,56,0.00,,,0.00,weatherlink.com 1.10,2013-04-07 08:03:00,
2013-04-07 00:38:00,7.6,-5.0,29.68,WNW,288,0.0,0.0,57,0.00,,,0.00,weatherlink.com 1.10,2013-04-07 08:38:00,
2013-04-07 00:49:00,7.8,-6.0,29.68,WNW,288,0.0,0.0,54,0.00,,,0.00,weatherlink.com 1.10,2013-04-07 08:49:00,
2013-04-07 01:04:00,7.7,-5.0,29.67,WNW,288,0.0,0.0,56,0.00,,,0.00,weatherlink.com 1.10,2013-04-07 09:04:00,
2013-04-07 01:19:00,7.6,-6.0,29.67,WNW,288,0.0,0.0,54,0.00,,,0.00,weatherlink.com 1.10,2013-04-07 09:19:00,
2013-04-07 01:34:00,7.4,-7.0,29.67,WNW,288,0.0,0.0,52,0.00,,,0.00,weatherlink.com 1.10,2013-04-07 09:34:00,
2013-04-07 01:49:00,7.3,-7.0,29.68,WNW,288,0.0,0.0,53,0.00,,,0.00,weatherlink.com 1.10,2013-04-07 09:49:00,
2013-04-07 02:04:00,7.2,-6.0,29.68,WNW,288,0.0,0.0,54,0.00,,,0.00,weatherlink.com 1.10,2013-04-07 10:04:00,
2013-04-07 02:19:00,7.0,-8.0,29.68,WNW,288,0.0,0.0,51,0.00,,,0.00,weatherlink.com 1.10,2013-04-07 10:19:00,
2013-04-07 02:34:00,6.8,-8.0,29.68,WNW,288,0.0,0.0,52,0.00,,,0.00,weatherlink.com 1.10,2013-04-07 10:34:00,
2013-04-07 02:49:00,6.3,-6.0,29.69,WNW,288,0.0,0.0,58,0.00,,,0.00,weatherlink.com 1.10,2013-04-07 10:49:00,
2013-04-07 03:04:00,6.1,-5.0,29.69,WNW,288,0.0,0.0,61,0.00,,,0.00,weatherlink.com 1.10,2013-04-07 11:04:00,
2013-04-07 03:19:00,6.0,-5.0,29.69,WNW,288,0.0,0.0,60,0.00,,,0.00,weatherlink.com 1.10,2013-04-07 11:19:00,
2013-04-07 03:35:00,6.0,-6.0,29.69,WNW,288,0.0,0.0,59,0.00,,,0.00,weatherlink.com 1.10,2013-04-07 11:35:00,
2013-04-07 03:50:00,5.5,-6.0,29.69,WNW,288,0.0,0.0,60,0.00,,,0.00,weatherlink.com 1.10,2013-04-07 11:50:00,
2013-04-07 04:05:00,5.4,-6.0,29.69,NE,42,0.0,0.0,59,0.00,,,0.00,weatherlink.com 1.10,2013-04-07 12:05:00,
2013-04-07 04:20:00,5.3,-8.0,29.70,NE,43,0.0,0.0,54,0.00,,,0.00,weatherlink.com 1.10,2013-04-07 12:20:00,
2013-04-07 04:35:00,5.2,-6.0,29.69,SSE,152,0.0,0.0,60,0.00,,,0.00,weatherlink.com 1.10,2013-04-07 12:35:00,
2013-04-07 04:50:00,4.6,-6.0,29.70,SSE,154,0.0,1.0,61,0.00,,,0.00,weatherlink.com 1.10,2013-04-07 12:50:00,
2013-04-07 05:05:00,4.1,-6.0,29.70,SSE,147,0.0,1.0,62,0.00,,,0.00,weatherlink.com 1.10,2013-04-07 13:05:00,
2013-04-07 05:35:00,3.7,-6.0,29.71,SSE,153,0.0,0.0,65,0.00,,,0.00,weatherlink.com 1.10,2013-04-07 13:35:00,
2013-04-07 06:05:00,2.9,-6.0,29.72,SE,124,0.0,1.0,67,0.00,,,0.00,weatherlink.com 1.10,2013-04-07 14:05:00,
2013-04-07 06:20:00,2.6,-6.0,29.72,ENE,70,0.0,1.0,67,0.00,,,0.00,weatherlink.com 1.10,2013-04-07 14:20:00,
2013-04-07 06:35:00,2.2,-7.0,29.72,East,82,0.0,1.0,67,0.00,,,0.00,weatherlink.com 1.10,2013-04-07 14:35:00,
2013-04-07 06:50:00,2.0,-6.0,29.72,East,90,0.0,1.0,68,0.00,,,0.00,weatherlink.com 1.10,2013-04-07 14:50:00,
2013-04-07 07:06:00,2.0,-5.0,29.73,SSE,168,0.0,1.0,71,0.00,,,0.00,weatherlink.com 1.10,2013-04-07 15:06:00,
2013-04-07 07:21:00,2.0,-5.0,29.73,East,89,0.0,1.0,73,0.00,,,0.00,weatherlink.com 1.10,2013-04-07 15:21:00,
2013-04-07 07:51:00,1.9,-5.0,29.73,ESE,102,0.0,0.0,74,0.00,,,0.00,weatherlink.com 1.10,2013-04-07 15:51:00,
2013-04-07 08:06:00,2.1,-4.0,29.73,ENE,72,0.0,1.0,75,0.00,,,0.00,weatherlink.com 1.10,2013-04-07 16:06:00,
2013-04-07 08:21:00,2.1,-4.0,29.74,East,92,0.0,1.0,75,0.00,,,0.00,weatherlink.com 1.10,2013-04-07 16:21:00,
2013-04-07 08:36:00,2.2,-4.0,29.74,SSE,157,0.0,1.0,76,0.00,,,0.00,weatherlink.com 1.10,2013-04-07 16:36:00,
2013-04-07 08:51:00,2.4,-4.0,29.74,SE,125,0.0,1.0,74,0.00,,,0.00,weatherlink.com 1.10,2013-04-07 16:51:00,
2013-04-07 09:06:00,2.5,-4.0,29.75,SSE,160,0.0,2.0,74,0.00,,,0.00,weatherlink.com 1.10,2013-04-07 17:06:00,
2013-04-07 09:21:00,2.8,-4.0,29.75,West,259,0.0,3.0,74,0.00,,,0.00,weatherlink.com 1.10,2013-04-07 17:21:00,
2013-04-07 09:36:00,2.9,-4.0,29.76,SSE,159,0.0,2.0,74,0.00,,,0.00,weatherlink.com 1.10,2013-04-07 17:36:00,
2013-04-07 09:51:00,2.9,-4.0,29.76,East,96,0.0,1.0,74,0.00,,,0.00,weatherlink.com 1.10,2013-04-07 17:51:00,
2013-04-07 10:06:00,3.3,-4.0,29.76,SSE,167,0.0,0.0,72,0.00,,,0.00,weatherlink.com 1.10,2013-04-07 18:06:00,
2013-04-07 10:36:00,3.7,-3.0,29.77,SE,124,0.0,1.0,74,0.00,,,0.00,weatherlink.com 1.10,2013-04-07 18:36:00,
2013-04-07 11:07:00,3.5,-3.0,29.78,SSE,160,0.0,1.0,74,0.00,,,0.00,weatherlink.com 1.10,2013-04-07 19:07:00,
2013-04-07 11:22:00,3.9,-3.0,29.78,SW,219,0.0,1.0,74,0.00,,,0.00,weatherlink.com 1.10,2013-04-07 19:22:00,
2013-04-07 11:37:00,4.2,-2.0,29.78,South,172,0.0,1.0,74,0.00,,,0.00,weatherlink.com 1.10,2013-04-07 19:37:00,
2013-04-07 11:52:00,4.6,-2.0,29.79,ESE,122,1.0,1.0,74,0.00,,,0.00,weatherlink.com 1.10,2013-04-07 19:52:00,
2013-04-07 12:22:00,5.3,-3.0,29.80,WSW,251,0.0,1.0,70,0.00,,,0.00,weatherlink.com 1.10,2013-04-07 20:22:00,
2013-04-07 12:37:00,6.1,-1.0,29.80,SE,142,0.0,2.0,72,0.00,,,0.00,weatherlink.com 1.10,2013-04-07 20:37:00,
2013-04-07 12:52:00,6.7,-2.0,29.79,SE,124,0.0,2.0,67,0.00,,,0.00,weatherlink.com 1.10,2013-04-07 20:52:00,
2013-04-07 13:07:00,7.7,-1.0,29.80,West,278,0.0,2.0,67,0.00,,,0.00,weatherlink.com 1.10,2013-04-07 21:07:00,
2013-04-07 13:22:00,9.1,-1.0,29.80,West,277,0.0,2.0,64,0.00,,,0.00,weatherlink.com 1.10,2013-04-07 21:22:00,
2013-04-07 13:37:00,9.4,-1.0,29.80,West,270,0.0,1.0,63,0.00,,,0.00,weatherlink.com 1.10,2013-04-07 21:37:00,
2013-04-07 13:52:00,9.0,-1.0,29.80,North,359,0.0,3.0,64,0.00,,,0.00,weatherlink.com 1.10,2013-04-07 21:52:00,
2013-04-07 14:08:00,9.2,-1.0,29.79,WNW,291,0.0,3.0,63,0.00,,,0.00,weatherlink.com 1.10,2013-04-07 22:08:00,
2013-04-07 14:22:00,9.5,0.0,29.80,SSE,152,0.0,1.0,65,0.00,,,0.00,weatherlink.com 1.10,2013-04-07 22:22:00,
2013-04-07 14:38:00,9.1,1.0,29.80,ESE,102,1.0,2.0,69,0.00,,,0.00,weatherlink.com 1.10,2013-04-07 22:38:00,
2013-04-07 14:53:00,8.5,1.0,29.80,WNW,283,0.0,3.0,71,0.00,,,0.00,weatherlink.com 1.10,2013-04-07 22:53:00,
2013-04-07 15:23:00,8.4,2.0,29.80,WSW,248,0.0,5.0,75,0.00,,,0.00,weatherlink.com 1.10,2013-04-07 23:23:00,
2013-04-07 15:38:00,8.4,1.0,29.81,South,184,0.0,2.0,72,0.00,,,0.00,weatherlink.com 1.10,2013-04-07 23:38:00,
2013-04-07 16:08:00,7.9,1.0,29.82,SSE,149,0.0,3.0,72,0.00,,,0.00,weatherlink.com 1.10,2013-04-08 00:08:00,
2013-04-07 16:23:00,7.8,1.0,29.82,WSW,248,0.0,1.0,72,0.00,,,0.00,weatherlink.com 1.10,2013-04-08 00:23:00,
2013-04-07 16:38:00,7.7,1.0,29.82,South,176,0.0,1.0,74,0.00,,,0.00,weatherlink.com 1.10,2013-04-08 00:38:00,
2013-04-07 17:08:00,7.6,1.0,29.83,SSE,165,0.0,1.0,75,0.00,,,0.00,weatherlink.com 1.10,2013-04-08 01:08:00,
2013-04-07 18:09:00,7.5,2.0,29.85,NNW,333,0.0,1.0,77,0.00,,,0.00,weatherlink.com 1.10,2013-04-08 02:09:00,
2013-04-07 18:24:00,7.4,2.0,29.86,WNW,301,0.0,1.0,78,0.00,,,0.00,weatherlink.com 1.10,2013-04-08 02:24:00,
2013-04-07 18:39:00,7.2,1.0,29.85,WNW,286,0.0,1.0,77,0.00,,,0.00,weatherlink.com 1.10,2013-04-08 02:39:00,
2013-04-07 18:54:00,7.2,1.0,29.86,NW,309,0.0,1.0,77,0.00,,,0.00,weatherlink.com 1.10,2013-04-08 02:54:00,
2013-04-07 19:24:00,6.8,2.0,29.87,SSW,200,0.0,0.0,81,0.00,,,0.00,weatherlink.com 1.10,2013-04-08 03:24:00,
2013-04-07 19:39:00,6.6,2.0,29.87,SE,136,1.0,1.0,80,0.00,,,0.00,weatherlink.com 1.10,2013-04-08 03:39:00,
2013-04-07 20:09:00,6.5,2.0,29.88,SSE,152,0.0,0.0,81,0.00,,,0.00,weatherlink.com 1.10,2013-04-08 04:09:00,
2013-04-07 20:24:00,6.3,2.0,29.89,West,264,0.0,0.0,81,0.00,,,0.00,weatherlink.com 1.10,2013-04-08 04:24:00,
2013-04-07 20:39:00,6.1,2.0,29.89,ENE,69,0.0,0.0,81,0.00,,,0.00,weatherlink.com 1.10,2013-04-08 04:39:00,
2013-04-07 20:54:00,5.9,1.0,29.90,ENE,69,0.0,0.0,81,0.00,,,0.00,weatherlink.com 1.10,2013-04-08 04:54:00,
2013-04-07 21:09:00,5.7,1.0,29.90,ENE,69,0.0,0.0,81,0.00,,,0.00,weatherlink.com 1.10,2013-04-08 05:09:00,
2013-04-07 21:24:00,5.2,1.0,29.91,ENE,69,0.0,0.0,81,0.00,,,0.00,weatherlink.com 1.10,2013-04-08 05:24:00,
2013-04-07 21:40:00,4.6,0.0,29.92,ENE,69,0.0,0.0,81,0.00,,,0.00,weatherlink.com 1.10,2013-04-08 05:40:00,
2013-04-07 21:55:00,3.8,-1.0,29.93,ENE,69,0.0,0.0,81,0.00,,,0.00,weatherlink.com 1.10,2013-04-08 05:55:00,
2013-04-07 22:10:00,2.9,-2.0,29.93,ENE,69,0.0,0.0,80,0.00,,,0.00,weatherlink.com 1.10,2013-04-08 06:10:00,
2013-04-07 22:25:00,1.7,-3.0,29.93,ENE,69,0.0,0.0,80,0.00,,,0.00,weatherlink.com 1.10,2013-04-08 06:25:00,
2013-04-07 22:40:00,0.9,-4.0,29.94,ENE,69,0.0,0.0,80,0.00,,,0.00,weatherlink.com 1.10,2013-04-08 06:40:00,
2013-04-07 22:55:00,0.3,-4.0,29.94,ENE,69,0.0,0.0,83,0.00,,,0.00,weatherlink.com 1.10,2013-04-08 06:55:00,
2013-04-07 23:10:00,-0.4,-5.0,29.95,ENE,69,0.0,0.0,82,0.00,,,0.00,weatherlink.com 1.10,2013-04-08 07:10:00,
2013-04-07 23:25:00,-0.7,-4.0,29.95,ENE,69,0.0,0.0,84,0.00,,,0.00,weatherlink.com 1.10,2013-04-08 07:25:00,
2013-04-07 23:40:00,-1.6,-6.0,29.95,ENE,69,0.0,0.0,82,0.00,,,0.00,weatherlink.com 1.10,2013-04-08 07:40:00,
2013-04-07 23:55:00,-2.4,-6.0,29.95,ENE,69,0.0,0.0,83,0.00,,,0.00,weatherlink.com 1.10,2013-04-08 07:55:00,